Location: Santa Cristina
(46.5667°N, 11.7167°E)
Time: 03:38:45
(UTC+00:00)

Cosmos 1459 Rocket - Pass Details

Date: 21 April 2021
Orbit: 938 x 999 km, 83.0° (Epoch: 10 May)

Event Time Altitude Azimuth Distance (km) Brightness Sun altitude
Rises 02:58:59 0° 352° (N) 3,733 7.4 -12.6°
Reaches altitude 10° 03:01:34 10° 355° (N) 2,779 6.8 -12.3°
Maximum altitude 03:07:56 70° 79° (E) 1,058 4.4 -11.3°
Drops below altitude 10° 03:14:13 10° 163° (SSE) 2,739 6.2 -10.4°
Sets 03:16:44 0° 166° (SSE) 3,675 6.9 -10.0°
